TimeEDT,TemperatureF,Dew PointF,Humidity,Sea Level PressureIn,VisibilityMPH,Wind Direction,Wind SpeedMPH,Gust SpeedMPH,PrecipitationIn,Events,Conditions,WindDirDegrees,DateUTC
12:37 AM,62.6,57.2,82,29.85,6.0,SSW,3.5,-,0.02,Rain,Light Rain,210,2013-10-23 04:37:00
12:53 AM,60.1,55.0,83,29.85,4.0,South,4.6,-,0.03,Rain,Rain,180,2013-10-23 04:53:00
1:40 AM,59.0,55.4,88,29.84,3.0,Calm,Calm,-,0.09,Rain,Rain,0,2013-10-23 05:40:00
1:53 AM,59.0,55.9,90,29.83,2.5,South,3.5,-,0.13,Rain,Rain,190,2013-10-23 05:53:00
2:01 AM,59.0,55.4,88,29.82,4.0,SSE,3.5,-,0.01,Rain,Rain,160,2013-10-23 06:01:00
2:53 AM,59.0,57.0,93,29.79,7.0,Calm,Calm,-,0.04,Rain,Light Rain,0,2013-10-23 06:53:00
3:29 AM,59.0,57.2,94,29.78,8.0,Calm,Calm,-,0.00,Rain,Light Rain,0,2013-10-23 07:29:00
3:53 AM,59.0,57.0,93,29.77,9.0,Calm,Calm,-,0.00,Rain,Light Rain,0,2013-10-23 07:53:00
4:53 AM,60.1,57.0,90,29.75,10.0,SW,3.5,-,0.00,,Overcast,220,2013-10-23 08:53:00
5:41 AM,60.8,57.2,88,29.75,10.0,SSW,3.5,-,N/A,,Overcast,210,2013-10-23 09:41:00
5:53 AM,60.1,57.0,90,29.75,10.0,SW,3.5,-,N/A,,Overcast,220,2013-10-23 09:53:00
6:51 AM,57.2,55.4,94,29.75,9.0,SW,3.5,-,N/A,,Partly Cloudy,220,2013-10-23 10:51:00
6:53 AM,57.9,55.9,93,29.75,9.0,SW,3.5,-,N/A,,Partly Cloudy,230,2013-10-23 10:53:00
7:53 AM,59.0,55.9,90,29.74,5.0,WSW,5.8,-,N/A,,Partly Cloudy,240,2013-10-23 11:53:00
8:53 AM,62.1,57.9,86,29.75,10.0,WSW,9.2,-,N/A,,Partly Cloudy,250,2013-10-23 12:53:00
9:06 AM,60.8,57.2,88,29.76,8.0,West,13.8,-,N/A,,Mostly Cloudy,270,2013-10-23 13:06:00
9:17 AM,60.8,57.2,88,29.76,7.0,West,9.2,-,N/A,,Overcast,270,2013-10-23 13:17:00
9:34 AM,62.6,57.2,82,29.75,7.0,West,9.2,-,N/A,,Overcast,270,2013-10-23 13:34:00
9:53 AM,63.0,59.0,87,29.75,7.0,West,10.4,-,N/A,,Overcast,260,2013-10-23 13:53:00
10:12 AM,66.2,59.0,78,29.75,10.0,West,10.4,-,N/A,,Mostly Cloudy,260,2013-10-23 14:12:00
10:50 AM,66.2,57.2,73,29.75,10.0,West,15.0,-,N/A,,Scattered Clouds,260,2013-10-23 14:50:00
10:53 AM,66.9,57.0,70,29.75,10.0,West,13.8,-,N/A,,Partly Cloudy,260,2013-10-23 14:53:00
11:53 AM,71.1,55.9,59,29.74,10.0,WSW,15.0,-,N/A,,Clear,250,2013-10-23 15:53:00
12:53 PM,72.0,52.0,49,29.72,10.0,West,12.7,-,N/A,,Clear,280,2013-10-23 16:53:00
1:53 PM,73.9,51.1,45,29.70,10.0,West,17.3,-,N/A,,Partly Cloudy,260,2013-10-23 17:53:00
2:53 PM,75.0,48.0,38,29.70,10.0,West,15.0,-,N/A,,Scattered Clouds,270,2013-10-23 18:53:00
3:53 PM,72.0,44.1,37,29.71,10.0,West,18.4,27.6,N/A,,Partly Cloudy,270,2013-10-23 19:53:00
4:53 PM,73.0,43.0,34,29.73,10.0,WNW,19.6,25.3,N/A,,Clear,290,2013-10-23 20:53:00
5:53 PM,70.0,41.0,35,29.76,10.0,West,10.4,-,N/A,,Clear,280,2013-10-23 21:53:00
6:53 PM,64.9,42.1,43,29.81,10.0,WNW,5.8,-,N/A,,Clear,290,2013-10-23 22:53:00
7:53 PM,63.0,43.0,48,29.84,10.0,WNW,6.9,-,N/A,,Clear,290,2013-10-23 23:53:00
8:53 PM,60.1,42.1,51,29.87,10.0,WNW,4.6,-,N/A,,Clear,300,2013-10-24 00:53:00
9:53 PM,55.9,43.0,62,29.91,10.0,NW,6.9,-,N/A,,Clear,320,2013-10-24 01:53:00
10:53 PM,55.9,37.0,49,29.96,10.0,NNW,17.3,21.9,N/A,,Clear,330,2013-10-24 02:53:00
11:53 PM,54.0,35.1,49,29.98,10.0,NNW,10.4,-,N/A,,Clear,330,2013-10-24 03:53:00